JCSAT-18 (KACIFIC 1)

Last updated on Mon Jul 07 2025 00:02:46 GMT+0000 (Coordinated Universal Time)

1 44868U 19091A 25186.88009872 -.00000184 00000+0 00000+0 0 9996 2 44868 0.0401 223.9924 0000492 283.7809 243.1699 1.00274447 20533
UTC large
Height (km)
Speed (km/s)
/
Latitude / Longitude
Inclination (degrees)
Orbital Period (minutes)
Azimuth
Elevation
Range (km)
Doppler Factor

Next 0 passes for location: London (51.5072 / 0.1276)

Sorry there are no passes over London.